Ozark, AL

9:47 AM CDT on October 21, 2017 (GMT -0500)
Cairns Army Air Field

Weather History for KOZR - December, 2012

Change the Weather History Date:

Saturday, December 15, 2012

  Actual Average Record
Temperature  
Mean Temperature 56 °F -  
Max Temperature 66 °F 59 °F 75 °F (2011)
Min Temperature 46 °F 38 °F 24 °F (2010)
Degree Days  
Heating Degree Days 9    
Growing Degree Days 6 (Base 50)    
Moisture  
Dew Point 50 °F    
Average Humidity 84    
Maximum Humidity 96    
Minimum Humidity 63    
Precipitation  
Precipitation 0.00 in - - ()
Sea Level Pressure  
Sea Level Pressure 30.12 in    
Wind  
Wind Speed 3 mph (ESE)    
Max Wind Speed 9 mph    
Max Gust Speed -    
Visibility 10 miles    
Events      
Averages and records for this station are not official NWS values.
T = Trace of Precipitation, MM = Missing Value Source: NWS Daily Summary

Daily Weather History Graph

Daily Weather History Graph

Search for Another Location

Airport or City:

Trip Planner

Search our weather history database for the weather conditions in past years. The results will help you decide how hot, cold, wet, or windy it might be!

Date:

Astronomy

Dec. 15, 2012 Rise Set
Actual Time 6:34 AM CST 4:42 PM CST
Civil Twilight 6:07 AM CST 5:08 PM CST
Nautical Twilight 5:37 AM CST 5:39 PM CST
Astronomical Twilight 5:07 AM CST 6:08 PM CST
Moon 8:33 AM CST (12/15) 7:37 PM CST (12/15)
Length of Visible Light 11h 01m
Length of Day
10h 07m
Waxing Crescent, 8% of the Moon is Illuminated
Dec 15
Waxing Crescent
Dec 19
First Quarter
Dec 28
Full
Jan 4
Last Quarter
Jan 11
New

Hourly Weather History & Observations

Time (CST) Temp. Dew Point Humidity Pressure Visibility Wind Dir Wind Speed Gust Speed Precip Events Conditions
12:55 AM 46.9 °F 45.9 °F 96% 30.15 in 10.0 mi Calm Calm - N/A   Overcast
1:55 AM 47.5 °F 46.2 °F 95% 30.16 in 10.0 mi Calm Calm - N/A   Mostly Cloudy
2:55 AM 47.5 °F 46.2 °F 95% 30.17 in 10.0 mi Calm Calm - N/A   Mostly Cloudy
3:55 AM 47.3 °F 46.0 °F 95% 30.15 in 10.0 mi SE 4.6 mph - N/A   Mostly Cloudy
4:55 AM 47.1 °F 46.0 °F 96% 30.16 in 10.0 mi West 3.5 mph - N/A   Overcast
5:55 AM 47.8 °F 46.6 °F 95% 30.15 in 10.0 mi East 5.8 mph - N/A   Overcast
6:55 AM 48.4 °F 46.6 °F 93% 30.19 in 10.0 mi Calm Calm - N/A   Overcast
7:55 AM 49.5 °F 47.3 °F 92% 30.18 in 10.0 mi ENE 5.8 mph - N/A   Overcast
8:55 AM 51.6 °F 48.9 °F 90% 30.20 in 10.0 mi ENE 4.6 mph - N/A   Overcast
9:55 AM 55.0 °F 50.0 °F 83% 30.21 in 10.0 mi Variable 5.8 mph - N/A   Mostly Cloudy
10:55 AM 59.4 °F 49.1 °F 69% 30.18 in 10.0 mi ESE 9.2 mph - N/A   Partly Cloudy
11:55 AM 62.4 °F 50.7 °F 66% 30.14 in 10.0 mi SE 6.9 mph - N/A   Clear
12:55 PM 63.9 °F 51.8 °F 65% 30.11 in 10.0 mi ESE 4.6 mph - N/A   Mostly Cloudy
1:55 PM 65.5 °F 52.7 °F 63% 30.09 in 10.0 mi ESE 8.1 mph - N/A   Clear
2:55 PM 66.4 °F 53.2 °F 63% 30.08 in 10.0 mi ESE 5.8 mph - N/A   Clear
3:55 PM 66.0 °F 53.8 °F 65% 30.08 in 10.0 mi SE 5.8 mph - N/A   Clear
4:55 PM 62.1 °F 54.1 °F 75% 30.07 in 10.0 mi SE 3.5 mph - N/A   Clear
5:55 PM 57.6 °F 53.2 °F 85% 30.07 in 10.0 mi ESE 3.5 mph - N/A   Clear
6:55 PM 58.5 °F 53.8 °F 84% 30.08 in 10.0 mi East 4.6 mph - N/A   Overcast
7:55 PM 56.8 °F 52.9 °F 87% 30.06 in 10.0 mi East 4.6 mph - N/A   Mostly Cloudy
8:55 PM 57.4 °F 53.1 °F 85% 30.08 in 10.0 mi Calm Calm - N/A   Mostly Cloudy
9:55 PM 57.2 °F 53.8 °F 88% 30.08 in 10.0 mi ESE 4.6 mph - N/A   Overcast
10:55 PM 55.0 °F 52.9 °F 92% 30.09 in 10.0 mi Calm Calm - N/A   Mostly Cloudy
11:55 PM 56.1 °F 54.0 °F 92% 30.05 in 10.0 mi ESE 4.6 mph - N/A   Overcast